sat.trackr.live / text

‹ back to catalog

STARLINK-5833

NORAD 55773 · 2023-028AJ

PAYLOAD ACTIVE UNKNOWN

§ Identity

Operator
Country
US
Launch date
2023-03-03
Launch site
AFWTR
Launch vehicle
Mass (kg)
RCS (m²)

Purposes: comms

External: N2YO · Heavens-Above · Gunter

§ Orbital elements

Epoch: 2026-09-20T13:54:07.721856Z

Period
96.11 min
Inclination
69.9982°
Eccentricity
0.0003068
Mean motion
14.98320884 rev/d
Perigee alt
570.0 km
Apogee alt
574.2 km
Semi-major
6,950.2 km
B*
4.6128e-5
RAAN
93.1521°
Arg perigee
271.4533°
Mean anomaly
88.6274°
Rev number
19,572

§ Raw data

STARLINK-58331 55773U 23028AJ  26263.57925604  .00000457  00000+0  46128-4 0  99992 55773  69.9982  93.1521 0003068 271.4533  88.6274 14.98320884195721

JSON: /api/v1/satellites/55773 · /tle

For live sub-satellite position, see the globe view (requires WebGL).

§ Visibility from observer

Set your observer location to see the next 7 days of passes ≥ 10°. The values pass through the URL so the page stays shareable.

No JS? Fill the form by hand. The geolocation button needs JavaScript.